SCP
0 0 0 0 0 0 0 0 0 0 0 0 0 0 0 0 0 0 0 0 0 0 0 0 0 0 0 0 0 0 0 0 0 0 0 0 0 0 0 0 0 0 0 0 0 0 0 0 0
0 0 0 0 0 0 0 0 0 0 0 0 0 0 0 0 0 0 0 0 0 0 0 0 0 0 0 0 0 0 0 0 0 0 0 0 0 0 0 0 0 0 0 0 0 0 0 0 0
0 0 0 0 0 0 0 0 0 0 0 0 0 0 0 0 0 0 0 0 0 0 0 0 0 0 0 0 0 0 0 0 0 0 0 0 0 0 0 0 0 0 0 0 0 0 0 0 0
0 0 0 0 0 0 0 0 0 0 0 0 0 0 0 0 0 0 0 0 0 0 0 0 0 0 0 0 0 0 0 0 0 0 0 0 0 0 0 0 0 0 0 0 0 0 0 0 0
0 0 0 0 0 0 0 0 0 0 0 0 0 0 0 0 0 0 0 0 0 0 0 0 0 0 0 0 0 0 0 0 0 0 0 0 0 0 0 0 0 0 0 0 0 0 0 0 0
0 0 0 0 0 0 0 0 0 0 0 0 0 0 0 0 0 0 0 0 0 0 0 0 0 0 0 0 0 0 0 0 0 0 0 0 0 0 0 0 0 0 0 0 0 0 0 0 0
0 0 0 0 0 0 0 0 0 0 0 0 0 0 0 0 0 0 0 0 0 0 0 0 0 0 0 0 0 0 0 0 0 0 0 0 0 0 0 0 0 0 0 0 0 0 0 0 0
0 0 0 0 0 0 0 0 0 0 0 0 0 0 0 0 0 0 0 0 0 0 0 0 0 0 0 0 0 0 0 0 0 0 0 0 0 0 0 0 0 0 0 0 0 0 0 0 0
0 0 0 0 0 0 0 0 0 0 0 0 0 0 0 0 0 0 0 0 0 0 0 0 0 0 0 0 0 0 0 0 0 0 0 0 0 0 0 0 0 0 0 0 0 0 0 0 0
0 0 0 0 0 0 0 0 0 0 0 0 0 0 0 0 0 0 0 0 0 0 0 0 0 0 0 0 0 0 0 0 0 0 0 0 0 0 0 0 0 0 0 0 0 0 0 0 0
0 0 0 0 0 0 0 0 0 0 0 0 0 0 0 0 0 0 0 0 0 0 0 0 0 0 0 0 0 0 0 0 0 0 0 0 0 0 0 0 0 0 0 0 0 0 0 0 0
0 0 0 0 0 0 0 0 0 0 0 0 0 0 0 0 0 0 0 0 0 0 0 0 0 0 0 0 0 0 0 0 0 0 0 0 0 0 0 0 0 0 0 0 0 0 0 0 0
0 0 0 0 0 0 0 0 0 0 0 0 0 0 0 0 0 0 0 0 0 0 0 0 0 0 0 0 0 0 0 0 0 0 0 0 0 0 0 0 0 0 0 0 0 0 0 0 0
0 0 0 0 0 0 0 0 0 0 0 0 0 0 0 0 0 0 0 0 0 0 0 0 0 0 0 0 0 0 0 0 0 0 0 0 0 0 0 0 0 0 0 0 0 0 0 0 0
0 0 0 0 0 0 0 0 0 0 0 0 0 0 0 0 0 0 0 0 0 0 0 0 0 0 0 0 0 0 0 0 0 0 0 0 0 0 0 0 0 0 0 0 0 0 0 0 0
0 0 0 0 0 0 0 0 0 0 0 0 0 0 0 0 0 0 0 0 0 0 0 0 0 0 0 0 0 0 0 0 0 0 0 0 0 0 0 0 0 0 0 0 0 0 0 0 0
0 0 0 0 0 0 0 0 0 0 0 0 0 0 0 0 0 0 0 0 0 0 0 0 0 0 0 0 0 0 0 0 0 0 0 0 0 0 0 0 0 0 0 0 0 0 0 0 0
0 0 0 0 0 0 0 0 0 0 0 0 0 0 0 0 0 0 0 0 0 0 0 0 0 0 0 0 0 0 0 0 0 0 0 0 0 0 0 0 0 0 0 0 0 0 0 0 0
0 0 0 0 0 0 0 0 0 0 0 0 0 0 0 0 0 0 0 0 0 0 0 0 0 0 0 0 0 0 0 0 0 0 0 0 0 0 0 0 0 0 0 0 0 0 0 0 0
0 0 0 0 0 0 0 0 0 0 0 0 0 0 0 0 0 0 0 0 0 0 0 0 0 0 0 0 0 0 0 0 0 0 0 0 0 0 0 0 0 0 0 0 0 0 0 0 0
0 0 0 0 0 0 0 0 0 0 0 0 0 0 0 0 0 0 0 0 0 0 0 0 0 0 0 0 0 0 0 0 0 0 0 0 0 0 0 0 0 0 0 0 0 0 0 0 0
0 0 0 0 0 0 0 0 0 0 0 0 0 0 0 0 0 0 0 0 0 0 0 0 0 0 0 0 0 0 0 0 0 0 0 0 0 0 0 0 0 0 0 0 0 0 0 0 0
0 0 0 0 0 0 0 0 0 0 0 0 0 0 0 0 0 0 0 0 0 0 0 0 0 0 0 0 0 0 0 0 0 0 0 0 0 0 0 0 0 0 0 0 0 0 0 0 0
0 0 0 0 0 0 0 0 0 0 0 0 0 0 0 0 0 0 0 0 0 0 0 0 0 0 0 0 0 0 0 0 0 0 0 0 0 0 0 0 0 0 0 0 0 0 0 0 0
0 0 0 0 0 0 0 0 0 0 0 0 0 0 0 0 0 0 0 0 0 0 0 0 0 0 0 0 0 0 0 0 0 0 0 0 0 0 0 0 0 0 0 0 0 0 0 0 0
0 0 0 0 0 0 0 0 0 0 0 0 0 0 0 0 0 0 0 0 0 0 0 0 0 0 0 0 0 0 0 0 0 0 0 0 0 0 0 0 0 0 0 0 0 0 0 0 0
0 0 0 0 0 0 0 0 0 0 0 0 0 0 0 0 0 0 0 0 0 0 0 0 0 0 0 0 0 0 0 0 0 0 0 0 0 0 0 0 0 0 0 0 0 0 0 0 0
0 0 0 0 0 0 0 0 0 0 0 0 0 0 0 0 0 0 0 0 0 0 0 0 0 0 0 0 0 0 0 0 0 0 0 0 0 0 0 0 0 0 0 0 0 0 0 0 0
0 0 0 0 0 0 0 0 0 0 0 0 0 0 0 0 0 0 0 0 0 0 0 0 0 0 0 0 0 0 0 0 0 0 0 0 0 0 0 0 0 0 0 0 0 0 0 0 0
0 0 0 0 0 0 0 0 0 0 0 0 0 0 0 0 0 0 0 0 0 0 0 0 0 0 0 0 0 0 0 0 0 0 0 0 0 0 0 0 0 0 0 0 0 0 0 0 0
Wind_Speed
6 5 2 1 3 4 2 2 1 2 3 3 5 6 6 4 2 2 1 4 5 4 3 6 9 10 10 11 11 12 12 13 13 13 13 13 12 13 13 12 11 11 10 10 10 11 11 11 11
5 4 1 2 4 3 2 2 2 2 4 4 5 6 6 5 3 4 2 3 5 5 3 5 9 9 10 10 11 11 12 12 12 12 12 12 12 12 12 11 10 10 9 9 10 10 11 11 10
6 3 1 3 3 2 1 0 3 5 4 3 4 5 4 3 3 2 2 6 6 4 4 5 9 9 10 10 11 11 11 11 11 11 11 11 11 11 11 11 10 10 9 9 10 9 10 9 9
3 1 2 3 2 1 2 2 4 5 3 5 5 5 4 3 3 3 6 7 6 4 4 5 9 9 10 10 10 10 10 10 10 10 10 10 10 10 9 9 9 9 8 8 9 9 9 8 7
1 2 4 3 2 1 1 2 3 4 3 4 5 5 4 4 6 8 7 6 6 4 3 4 8 9 9 10 10 9 9 9 9 9 9 9 9 8 8 8 7 7 7 7 8 8 7 7 6
3 3 4 2 2 2 1 3 4 5 4 4 5 4 3 3 6 7 6 5 4 4 3 3 7 8 8 9 9 9 9 8 8 8 8 8 8 7 7 6 6 6 6 6 6 6 6 5 5
3 3 2 0 1 1 1 2 3 4 4 3 4 5 3 3 4 6 6 5 4 4 4 2 2 4 6 7 8 8 8 7 7 7 7 7 7 7 6 5 5 5 5 4 4 4 4 3 3
2 3 1 0 1 1 2 3 3 4 4 4 4 6 4 5 6 7 6 5 4 3 3 2 2 2 2 3 6 7 7 6 6 6 6 6 6 5 5 4 4 4 4 3 3 2 2 1 1
2 3 0 2 3 1 2 3 3 4 6 4 3 4 6 11 10 8 6 4 3 3 2 2 2 2 2 2 3 4 5 5 4 4 5 4 2 2 2 2 3 3 3 3 2 2 1 1 0
3 2 4 3 3 3 2 3 5 4 4 3 5 7 11 11 10 9 7 6 4 3 2 1 2 2 2 2 2 2 2 2 2 2 2 2 2 1 1 1 2 1 1 1 1 1 1 1 1
3 4 2 1 2 3 4 3 3 7 2 4 9 12 13 11 9 8 7 6 5 3 3 2 2 2 2 1 2 1 1 1 2 2 2 2 2 1 1 1 1 1 1 1 1 1 1 0 0
2 3 2 1 2 3 4 4 4 3 3 6 11 14 13 12 10 9 8 6 4 4 3 2 2 2 1 1 1 1 1 1 1 1 1 1 1 1 1 1 1 1 1 1 1 1 1 1 0
1 2 1 1 3 3 4 4 4 2 5 10 12 12 12 11 9 6 5 5 5 5 4 3 3 3 2 2 1 1 1 0 0 1 1 1 1 0 0 0 0 1 1 1 1 1 1 1 1
1 0 2 1 3 2 5 3 4 2 8 11 11 10 10 9 8 6 6 6 6 5 4 4 4 3 3 2 2 1 1 1 1 0 0 1 1 1 1 0 0 0 0 0 0 0 0 1 1
1 3 4 2 1 2 5 3 1 5 9 10 9 8 8 7 7 7 7 7 6 5 4 4 4 3 3 2 2 2 1 1 1 0 0 1 1 1 1 0 0 0 0 0 1 1 1 0 0
3 4 2 3 1 1 4 1 1 6 9 8 7 7 7 6 6 6 6 5 5 5 5 5 5 4 3 2 2 1 1 1 1 1 1 1 1 1 1 0 0 0 0 0 1 1 1 0 0
4 1 2 3 0 2 3 2 2 5 7 7 6 6 6 5 5 5 5 6 6 6 5 5 4 5 4 3 2 2 1 1 1 1 1 1 1 1 1 1 0 0 0 0 0 1 1 1 0
2 1 2 3 2 2 2 1 3 5 6 5 5 4 5 6 6 5 5 5 5 5 5 5 4 3 3 2 2 1 1 0 0 0 1 1 1 2 2 1 1 1 1 0 0 1 1 1 1
3 2 2 3 1 3 2 1 2 5 4 5 5 5 5 6 4 4 5 5 5 4 4 4 4 3 3 2 2 1 1 0 0 1 1 1 2 2 2 1 1 1 1 1 1 1 1 0 1
3 2 1 2 1 3 2 1 1 4 6 6 7 7 6 5 4 5 5 5 6 5 5 4 4 4 4 3 2 2 1 1 1 1 1 1 1 2 2 2 1 1 1 0 1 1 1 0 0
1 4 3 2 2 3 3 3 1 1 2 1 2 4 5 7 7 7 7 6 6 6 6 6 5 4 4 3 2 2 1 1 0 1 1 2 2 2 2 2 2 2 2 2 2 1 2 1 0
3 4 4 3 3 1 2 1 4 2 2 3 4 4 4 5 6 6 6 6 7 7 5 5 5 5 4 4 3 4 3 2 2 2 2 2 2 2 2 2 3 3 2 2 2 2 2 2 1
3 1 3 3 3 2 3 2 6 1 3 6 6 6 6 6 6 6 7 8 7 6 6 5 4 4 4 4 4 4 3 2 1 1 1 2 1 2 2 2 3 3 2 3 3 2 2 2 2
4 6 6 6 5 2 2 2 6 3 5 4 5 6 6 5 5 5 5 5 4 4 5 5 5 4 4 5 5 5 4 3 2 2 2 2 1 1 2 2 2 3 3 3 3 3 3 3 3
5 6 5 5 4 4 2 2 8 6 4 4 5 5 5 4 5 5 5 6 5 5 5 5 5 5 5 5 5 5 4 4 4 3 3 3 2 2 3 2 2 2 3 3 3 3 4 4 4
3 8 7 5 4 4 2 4 7 3 2 2 2 3 4 4 5 6 7 7 6 6 5 5 6 5 5 5 5 5 4 3 3 4 3 3 3 3 3 3 3 3 3 3 3 3 4 3 4
5 3 5 7 2 0 4 5 7 1 1 1 0 1 3 4 5 6 6 6 6 6 6 6 5 5 5 5 5 4 4 4 4 3 3 3 3 3 2 3 3 3 3 3 3 3 4 3 3
5 8 6 6 4 2 4 4 5 4 3 2 1 2 2 3 3 4 5 5 6 6 5 4 5 4 4 4 3 3 4 4 4 3 3 3 3 3 2 3 3 3 3 3 3 3 3 3 3
3 4 6 5 5 6 3 7 5 6 5 4 4 3 3 4 4 4 4 4 4 4 4 4 4 4 3 3 3 3 3 3 3 3 3 3 3 3 3 3 3 3 3 3 3 3 3 3 3
3 5 7 5 3 4 4 8 4 3 3 4 3 3 3 3 4 3 3 4 4 3 4 4 4 4 4 4 3 3 3 2 2 3 3 3 3 3 3 4 4 4 3 3 3 4 3 4 4
Wind_Direction
163 145 143 118 56 48 5 333 75 67 56 49 72 81 90 78 95 124 74 115 115 115 122 130 124 120 119 120 119 118 118 120 120 122 123 124 124 126 128 126 127 129 132 134 137 135 134 134 132
148 154 156 64 73 58 335 337 75 85 130 124 80 71 68 62 65 98 102 119 117 119 117 128 128 125 123 123 123 121 120 120 122 123 124 126 127 128 128 128 132 134 135 139 138 137 136 136 134
163 189 90 66 74 143 217 96 116 109 117 89 78 63 72 78 97 114 137 126 112 111 112 131 130 128 127 125 124 124 123 123 124 123 124 125 125 125 125 127 131 134 136 138 136 135 137 136 137
160 80 51 61 45 244 193 155 133 123 78 58 87 73 64 56 113 122 124 120 113 109 113 132 131 128 127 127 127 126 126 126 126 125 126 127 125 124 125 127 128 131 132 136 139 137 137 139 141
89 71 51 34 346 323 162 139 121 102 80 71 86 87 55 30 92 110 117 118 120 117 112 127 131 130 130 130 129 128 127 128 131 131 129 128 127 126 128 129 130 130 129 131 135 136 140 147 151
64 66 64 18 337 355 89 104 98 88 91 93 88 91 68 85 106 118 113 108 108 110 108 123 136 132 133 134 133 133 132 130 133 135 135 132 130 132 135 135 136 135 135 135 136 140 143 150 157
96 82 100 156 347 354 137 108 114 112 107 107 107 98 99 117 118 116 106 101 95 93 92 88 111 125 131 132 133 136 135 133 132 134 136 137 137 139 140 141 146 145 143 139 139 142 143 155 171
125 95 58 336 148 261 150 114 110 114 109 111 107 128 159 162 127 108 97 91 92 91 91 87 80 80 91 111 132 135 132 130 129 134 130 133 136 142 148 150 162 160 153 152 151 150 155 158 193
116 76 223 217 178 208 154 122 96 86 101 97 96 135 146 136 128 119 110 99 106 112 88 95 90 82 83 97 123 119 122 120 119 119 124 113 84 94 120 143 163 170 173 173 168 172 163 145 232
97 127 227 209 176 164 140 123 136 111 98 91 87 99 122 135 142 144 149 156 162 166 157 132 119 108 95 107 83 65 77 72 66 67 75 69 68 65 85 100 139 148 164 186 181 188 107 42 10
157 199 233 235 168 136 125 113 119 127 156 180 156 145 143 148 152 159 167 171 175 174 175 164 149 133 116 97 95 70 63 65 58 65 79 78 64 43 38 33 11 13 53 43 37 24 36 46 339
171 247 207 217 133 126 134 128 113 142 203 160 152 149 152 159 168 174 176 177 168 168 182 165 153 140 136 121 107 103 94 77 72 67 83 91 76 47 33 38 18 25 34 39 37 42 30 34 242
194 294 78 148 105 112 114 118 121 119 120 124 135 146 158 167 174 177 173 169 167 174 176 162 151 148 138 124 135 128 127 113 91 73 91 117 127 131 78 51 22 29 35 25 357 8 21 9 346
210 350 348 49 110 122 115 100 100 140 131 133 144 157 167 172 171 165 167 170 174 177 173 159 153 154 145 145 148 143 145 132 91 78 118 143 150 150 138 110 335 330 328 289 334 15 9 4 359
75 47 14 8 69 116 107 54 126 155 140 143 155 164 170 175 170 176 179 178 174 171 167 163 162 152 152 153 154 145 152 145 145 181 179 154 144 156 145 128 203 274 272 114 75 50 55 12 359
43 48 7 305 83 112 114 206 188 151 148 153 166 174 179 185 184 182 175 171 167 160 163 173 173 156 157 154 145 133 145 150 163 159 148 145 156 165 133 127 262 276 92 105 118 122 83 45 321
32 48 290 302 127 122 128 198 167 156 155 164 176 183 185 185 195 188 176 171 169 168 166 168 167 161 163 157 138 131 133 141 148 132 145 168 179 168 150 173 229 192 114 121 192 119 149 171 208
225 216 260 271 276 112 114 169 139 158 156 165 170 176 184 192 201 187 175 169 164 162 162 163 160 156 149 136 116 99 85 87 104 164 199 184 181 173 163 177 200 169 143 131 133 137 134 163 197
170 170 238 260 241 122 137 157 162 167 169 176 182 185 193 201 187 164 166 161 154 159 160 162 162 163 149 140 151 156 201 221 240 231 228 202 185 179 175 196 174 165 164 182 156 133 120 69 123
157 148 265 307 28 121 105 45 134 175 196 195 195 196 196 188 172 171 170 167 168 171 172 167 171 173 174 172 168 165 164 190 213 264 269 234 207 193 197 192 196 175 151 130 145 136 134 255 113
209 184 204 211 39 63 87 359 350 211 197 192 202 199 195 193 192 188 182 181 177 181 182 183 184 182 182 170 140 129 95 46 39 283 276 260 230 215 210 200 191 185 179 194 208 178 174 196 270
253 229 178 153 109 328 98 280 293 250 241 229 222 208 208 206 201 195 190 185 187 191 184 181 181 180 180 169 163 169 180 202 217 218 241 263 240 228 216 202 195 199 193 199 216 196 192 181 215
215 99 110 104 115 62 28 126 290 316 257 246 229 221 217 208 201 195 194 196 193 189 185 186 179 181 178 179 181 180 199 212 213 210 241 261 264 247 231 211 205 210 208 207 210 203 202 198 205
124 67 55 49 68 45 284 161 280 244 228 245 230 222 218 210 205 198 189 183 192 188 185 182 180 194 186 187 192 190 196 198 200 220 232 249 256 258 248 223 215 219 218 217 217 211 212 217 214
81 86 36 6 12 261 274 181 251 251 227 218 223 221 210 198 193 186 179 182 187 190 191 187 182 203 203 201 205 205 203 199 211 221 226 233 240 245 251 243 231 230 229 225 217 211 224 222 221
149 134 151 187 218 276 324 235 254 269 252 222 219 211 193 188 192 193 192 188 191 194 192 187 190 204 205 209 217 213 205 206 223 227 226 229 233 238 242 238 239 238 235 235 220 219 229 222 223
130 139 152 128 130 343 288 286 301 292 327 19 39 159 194 202 200 199 198 195 191 192 197 197 191 199 205 209 213 213 208 209 222 230 229 239 246 245 239 234 239 243 236 230 220 225 231 224 225
124 140 100 108 134 242 289 275 253 267 271 305 311 250 229 208 207 204 200 198 195 193 193 190 190 194 198 198 209 219 218 215 220 221 228 240 250 253 252 245 238 241 240 229 218 232 235 233 239
87 89 101 111 142 154 239 269 233 228 219 214 238 243 210 194 201 201 199 199 196 183 182 187 192 190 189 196 209 227 230 220 218 226 236 245 254 250 249 246 240 241 242 237 225 236 230 232 242
142 151 143 147 198 169 181 262 295 231 215 200 221 237 212 198 200 192 186 180 184 191 202 203 201 200 205 203 208 221 231 225 226 241 249 247 252 256 253 246 238 241 241 233 229 237 239 233 238